Lakeville, MN

11:07 AM CST on February 21, 2017 (GMT -0600)
Airlake

Weather History for KLVN - July, 2013

Change the Weather History Date:

Friday, July 26, 2013

  Actual Average Record
Temperature  
Mean Temperature 60 °F -  
Max Temperature 66 °F 81 °F 96 °F (1955)
Min Temperature 55 °F 60 °F 49 °F (1962)
Degree Days  
Heating Degree Days 4    
Growing Degree Days 10 (Base 50)    
Moisture  
Dew Point 55 °F    
Average Humidity 78    
Maximum Humidity 100    
Minimum Humidity 56    
Precipitation  
Precipitation 0.00 in - - ()
Sea Level Pressure  
Sea Level Pressure 29.98 in    
Wind  
Wind Speed 7 mph (NW)    
Max Wind Speed 20 mph    
Max Gust Speed 28 mph    
Visibility 10 miles    
Events Rain    
Averages and records for this station are not official NWS values.
T = Trace of Precipitation, MM = Missing Value Source: NWS Daily Summary

Daily Weather History Graph

Daily Weather History Graph

Search for Another Location

Airport or City:

Trip Planner

Search our weather history database for the weather conditions in past years. The results will help you decide how hot, cold, wet, or windy it might be!

Date:

Astronomy

Jul. 26, 2013 Rise Set
Actual Time 5:53 AM CDT 8:45 PM CDT
Civil Twilight 5:18 AM CDT 9:19 PM CDT
Nautical Twilight 4:35 AM CDT 10:02 PM CDT
Astronomical Twilight 3:44 AM CDT 10:53 PM CDT
Moon 10:44 PM CDT (7/26) 10:44 AM CDT (7/26)
Length of Visible Light 16h 00m
Length of Day
14h 52m
Waning Gibbous, 80% of the Moon is Illuminated
Jul 26
Waning Gibbous
Jul 29
Last Quarter
Aug 6
New
Aug 14
First Quarter
Aug 20
Full

Hourly Weather History & Observations

Time (CDT) Temp. Dew Point Humidity Pressure Visibility Wind Dir Wind Speed Gust Speed Precip Events Conditions
12:10 AM 66.2 °F 62.6 °F 88% 29.93 in 10.0 mi Calm Calm - N/A   Clear
12:29 AM 64.4 °F 62.6 °F 94% 29.94 in 10.0 mi Calm Calm - N/A   Clear
12:50 AM 64.4 °F 62.6 °F 94% 29.94 in 10.0 mi WSW 3.5 mph - N/A   Scattered Clouds
1:10 AM 64.4 °F 62.6 °F 94% 29.94 in 10.0 mi WSW 3.5 mph - N/A   Mostly Cloudy
1:29 AM 64.4 °F 62.6 °F 94% 29.94 in 10.0 mi WSW 6.9 mph - N/A   Mostly Cloudy
1:50 AM 64.4 °F 62.6 °F 94% 29.93 in 10.0 mi SW 4.6 mph - N/A   Overcast
2:09 AM 64.4 °F 62.6 °F 94% 29.94 in 10.0 mi West 5.8 mph - N/A   Overcast
2:30 AM 64.4 °F 60.8 °F 88% 29.93 in 7.0 mi West 12.7 mph 17.3 mph N/A Rain Rain
2:50 AM 62.6 °F 57.2 °F 82% 29.92 in 10.0 mi West 4.6 mph - N/A   Scattered Clouds
3:09 AM 60.8 °F 57.2 °F 88% 29.92 in 10.0 mi Calm Calm - N/A   Clear
3:30 AM 60.8 °F 57.2 °F 88% 29.91 in 10.0 mi West 4.6 mph - N/A   Clear
3:50 AM 62.6 °F 60.8 °F 94% 29.91 in 10.0 mi West 4.6 mph - N/A   Clear
4:09 AM 62.6 °F 62.6 °F 100% 29.91 in 10.0 mi WSW 3.5 mph - N/A   Clear
4:30 AM 62.6 °F 62.6 °F 100% 29.91 in 7.0 mi West 3.5 mph - N/A   Clear
4:50 AM 62.6 °F 60.8 °F 94% 29.91 in 7.0 mi West 4.6 mph - N/A   Clear
5:09 AM 62.6 °F 60.8 °F 94% 29.92 in 10.0 mi West 4.6 mph - N/A   Scattered Clouds
5:30 AM 60.8 °F 60.8 °F 100% 29.92 in 10.0 mi WNW 5.8 mph - N/A   Scattered Clouds
5:50 AM 60.8 °F 60.8 °F 100% 29.92 in 10.0 mi West 3.5 mph - N/A   Clear
6:09 AM 60.8 °F 60.8 °F 100% 29.92 in 10.0 mi West 3.5 mph - N/A   Clear
6:30 AM 60.8 °F 60.8 °F 100% 29.93 in 10.0 mi West 3.5 mph - N/A   Clear
6:50 AM 60.8 °F 59.0 °F 94% 29.93 in 10.0 mi West 4.6 mph - N/A   Clear
7:09 AM 62.6 °F 59.0 °F 88% 29.94 in 10.0 mi WNW 5.8 mph - N/A   Scattered Clouds
7:30 AM 62.6 °F 57.2 °F 82% 29.94 in 10.0 mi WNW 9.2 mph - N/A   Clear
7:50 AM 62.6 °F 57.2 °F 82% 29.95 in 10.0 mi WNW 10.4 mph - N/A   Clear
8:09 AM 62.6 °F 57.2 °F 82% 29.96 in 10.0 mi WNW 8.1 mph - N/A   Clear
8:30 AM 62.6 °F 55.4 °F 77% 29.96 in 10.0 mi WNW 10.4 mph - N/A   Clear
8:50 AM 64.4 °F 55.4 °F 73% 29.96 in 10.0 mi WNW 12.7 mph - N/A   Scattered Clouds
9:09 AM 64.4 °F 55.4 °F 73% 29.96 in 10.0 mi NW 15.0 mph 20.7 mph N/A   Scattered Clouds
9:30 AM 62.6 °F 55.4 °F 77% 29.96 in 10.0 mi WNW 16.1 mph - N/A   Mostly Cloudy
9:49 AM 62.6 °F 55.4 °F 77% 29.97 in 10.0 mi WNW 10.4 mph 18.4 mph N/A   Overcast
10:09 AM 62.6 °F 53.6 °F 72% 29.97 in 10.0 mi NW 13.8 mph 20.7 mph N/A   Scattered Clouds
10:30 AM 62.6 °F 55.4 °F 77% 29.97 in 10.0 mi West 12.7 mph 20.7 mph N/A   Mostly Cloudy
10:49 AM 62.6 °F 53.6 °F 72% 29.97 in 10.0 mi WNW 12.7 mph - N/A   Overcast
11:09 AM 64.4 °F 55.4 °F 73% 29.98 in 10.0 mi West 12.7 mph 17.3 mph N/A   Mostly Cloudy
11:30 AM 64.4 °F 55.4 °F 73% 29.98 in 10.0 mi West 15.0 mph - N/A   Mostly Cloudy
11:49 AM 66.2 °F 55.4 °F 68% 29.98 in 10.0 mi WNW 13.8 mph 18.4 mph N/A   Scattered Clouds
12:09 PM 64.4 °F 53.6 °F 68% 29.98 in 10.0 mi West 13.8 mph 18.4 mph N/A   Mostly Cloudy
12:30 PM 64.4 °F 53.6 °F 68% 29.99 in 10.0 mi WNW 12.7 mph 23.0 mph N/A   Overcast
12:49 PM 64.4 °F 53.6 °F 68% 29.99 in 10.0 mi WNW 16.1 mph 20.7 mph N/A   Mostly Cloudy
1:10 PM 66.2 °F 55.4 °F 68% 29.99 in 7.0 mi WNW 13.8 mph 19.6 mph N/A   Mostly Cloudy
1:30 PM 64.4 °F 55.4 °F 73% 29.98 in 10.0 mi NNW 15.0 mph 25.3 mph N/A   Mostly Cloudy
1:49 PM 66.2 °F 57.2 °F 73% 29.98 in 10.0 mi NW 12.7 mph 17.3 mph N/A   Scattered Clouds
2:10 PM 66.2 °F 55.4 °F 68% 29.97 in 10.0 mi NNW 12.7 mph 18.4 mph N/A   Mostly Cloudy
2:30 PM 66.2 °F 53.6 °F 64% 29.97 in 10.0 mi NW 17.3 mph 25.3 mph N/A   Mostly Cloudy
2:49 PM 64.4 °F 53.6 °F 68% 29.98 in 10.0 mi NW 19.6 mph 24.2 mph N/A   Overcast
3:10 PM 66.2 °F 53.6 °F 64% 29.98 in 10.0 mi WNW 16.1 mph - N/A   Mostly Cloudy
3:30 PM 64.4 °F 51.8 °F 64% 29.99 in 10.0 mi NNW 17.3 mph 25.3 mph N/A   Mostly Cloudy
3:49 PM 66.2 °F 53.6 °F 64% 29.99 in 10.0 mi NW 11.5 mph 19.6 mph N/A   Overcast
4:10 PM 64.4 °F 53.6 °F 68% 29.99 in 10.0 mi WNW 18.4 mph 24.2 mph N/A   Overcast
4:29 PM 64.4 °F 53.6 °F 68% 30.00 in 10.0 mi NW 12.7 mph 23.0 mph N/A   Overcast
4:50 PM 64.4 °F 51.8 °F 64% 30.02 in 10.0 mi NNW 16.1 mph 21.9 mph N/A   Overcast
5:10 PM 64.4 °F 53.6 °F 68% 30.02 in 10.0 mi NW 18.4 mph - N/A   Overcast
5:29 PM 62.6 °F 51.8 °F 68% 30.03 in 10.0 mi NNW 12.7 mph 25.3 mph N/A   Overcast
5:50 PM 62.6 °F 51.8 °F 68% 30.04 in 10.0 mi NNW 16.1 mph 27.6 mph N/A   Overcast
6:10 PM 64.4 °F 50.0 °F 59% 30.04 in 10.0 mi NNW 17.3 mph 23.0 mph N/A   Mostly Cloudy
6:29 PM 64.4 °F 48.2 °F 56% 30.04 in 10.0 mi North 10.4 mph 27.6 mph N/A   Scattered Clouds
6:50 PM 62.6 °F 48.2 °F 59% 30.04 in 10.0 mi NNW 11.5 mph 18.4 mph N/A   Overcast
7:09 PM 62.6 °F 48.2 °F 59% 30.04 in 10.0 mi North 9.2 mph 16.1 mph N/A   Overcast
7:29 PM 60.8 °F 50.0 °F 68% 30.05 in 10.0 mi NNW 12.7 mph 17.3 mph N/A   Overcast
7:50 PM 60.8 °F 51.8 °F 72% 30.06 in 10.0 mi North 9.2 mph - N/A Rain Rain
8:09 PM 57.2 °F 51.8 °F 82% 30.06 in 10.0 mi North 3.5 mph 18.4 mph N/A   Overcast
8:29 PM 57.2 °F 51.8 °F 82% 30.06 in 10.0 mi Calm Calm - N/A   Overcast
8:50 PM 57.2 °F 51.8 °F 82% 30.06 in 10.0 mi Calm Calm - N/A   Overcast
9:09 PM 57.2 °F 50.0 °F 77% 30.06 in 10.0 mi North 12.7 mph 20.7 mph N/A   Overcast
9:30 PM 57.2 °F 48.2 °F 72% 30.07 in 10.0 mi North 12.7 mph 18.4 mph N/A   Overcast
9:50 PM 55.4 °F 48.2 °F 77% 30.08 in 10.0 mi North 8.1 mph - N/A   Mostly Cloudy
10:09 PM 57.2 °F 50.0 °F 77% 30.07 in 10.0 mi North 6.9 mph - N/A   Overcast
10:30 PM 57.2 °F 48.2 °F 72% 30.07 in 10.0 mi North 11.5 mph - N/A   Overcast
10:49 PM 57.2 °F 48.2 °F 72% 30.08 in 10.0 mi NNE 6.9 mph - N/A   Overcast
11:09 PM 55.4 °F 46.4 °F 72% 30.08 in 10.0 mi NNE 12.7 mph 17.3 mph N/A   Overcast
11:30 PM 55.4 °F 46.4 °F 72% 30.08 in 10.0 mi NNE 10.4 mph 16.1 mph N/A   Overcast
11:49 PM 55.4 °F 46.4 °F 72% 30.08 in 10.0 mi NNE 10.4 mph - N/A   Overcast